Terug naar catalogus

NOAA 17 DEB

ActiefPO
NORAD 48747·DEBRIS·🇺🇸 United States

Gelanceerd Jun 24, 2002 vanaf Vandenberg Space Force Base

Loading…

Volgende Passages (komende 24 uur)

TLE

VersSource: Space-Track

Epoch: Sep 14, 2026, 04:49 UTC

1 48747U 02032CG  26257.20137402  .00029877  00000-0  24092-2 0  9990
2 48747  99.0303  35.1040 0017762  80.1923 280.1301 14.99718934290466

Volg NOAA 17 DEB in realtime met AllMySat

Download on the App Store